SCP
-0 -0 -0 -0 0 0 0 0 0 0 0 0 0 0 0 0 0 0 0 0 0 0 0 0 0 0 0 0 0 0 0 0 0 0 0 0 0 0 0 0 0 0 0
0 -0 -0 -0 -0 -0 -0 0 0 0 0 0 0 0 0 0 0 0 0 0 0 0 0 0 0 0 0 0 0 0 0 0 0 0 0 0 0 0 0 0 0 0 0
-0 -0 -0 -0 -0 -0 -0 -0 0 0 0 0 0 0 0 0 0 0 0 0 0 0 0 0 0 0 0 0 0 0 0 0 0 0 0 0 0 0 0 0 0 0 0
0 0 -0 -0 -0 -0 -0 -0 -0 -0 0 0 0 0 0 0 0 0 0 0 0 0 0 0 0 0 0 0 0 0 0 0 0 0 0 0 0 0 0 0 0 0 0
0 0 0 -0 -0 -0 -0 -0 -0 -0 0 -0 0 0 0 0 0 0 0 0 0 0 0 0 0 0 0 0 0 0 0 0 0 0 0 0 0 0 0 0 0 0 0
0 0 0 -0 -0 -0 -0 -0 -0 -0 0 0 0 0 0 0 0 0 0 0 0 0 0 0 0 0 0 0 0 0 0 0 0 0 0 0 0 -0 0 0 0 0 0
0 0 0 0 0 0 0 0 0 0 0 0 0 0 0 0 0 0 0 0 0 0 0 0 0 0 0 0 0 0 0 0 0 0 0 0 0 0 0 0 0 0 0
0 0 0 0 0 0 0 0 0 0 0 0 0 0 0 0 0 0 0 0 0 0 0 0 0 0 0 0 0 0 0 0 0 0 0 0 0 0 0 0 0 0 0
0 0 0 0 0 0 0 0 0 0 0 0 0 0 0 0 0 0 0 0 0 0 0 0 0 0 0 0 0 0 0 0 0 0 0 0 0 0 0 0 0 0 0
0 0 0 0 0 0 0 0 0 0 0 0 0 0 0 0 0 0 0 0 0 0 0 0 0 0 0 0 0 0 0 0 0 0 0 0 0 0 0 0 0 0 0
0 0 0 0 0 0 0 0 0 0 0 0 0 0 0 0 0 0 0 0 0 0 0 0 0 0 0 0 0 0 0 0 0 0 0 0 0 0 0 0 0 0 0
0 0 0 0 0 0 0 0 0 0 0 0 0 0 0 0 0 0 0 0 0 0 0 0 0 0 0 0 0 0 0 0 0 0 0 0 0 0 0 0 0 0 0
0 0 0 0 0 0 0 0 0 0 0 0 0 0 0 0 0 0 0 0 0 0 0 0 0 0 0 0 0 0 0 0 0 0 0 0 0 0 0 0 0 0 0
0 0 0 0 0 0 0 0 0 0 0 0 0 0 0 0 0 0 0 0 0 0 0 0 0 0 0 0 0 0 0 0 0 0 0 0 0 0 0 0 0 0 0
0 0 0 0 0 0 0 0 0 0 0 0 0 0 0 0 0 0 0 0 0 0 0 0 0 0 0 0 0 0 0 0 0 0 0 0 0 0 0 0 0 0 0
0 0 0 0 0 0 0 0 0 0 0 0 0 0 0 0 0 0 0 0 0 0 0 0 0 0 0 0 0 0 0 0 0 0 0 0 0 0 0 0 0 0 0
0 0 0 0 0 0 0 0 0 0 0 0 0 0 0 0 0 0 0 0 0 0 0 0 0 0 0 0 0 0 0 0 0 0 0 0 0 0 0 0 0 0 0
0 0 0 0 0 0 0 0 0 0 0 0 0 0 0 0 0 0 0 0 0 0 0 0 0 0 0 0 0 0 0 0 0 0 0 0 0 0 0 0 0 0 0
0 0 0 0 0 0 0 0 0 0 0 0 0 0 0 0 0 0 0 0 0 0 0 0 0 0 -0 -0 0 0 0 0 0 0 0 0 0 0 0 0 0 0 0
0 0 0 0 0 0 0 -0 -0 -0 0 0 0 0 0 0 0 0 0 0 0 0 0 0 0 0 0 0 0 -0 -0 0 0 0 0 0 0 0 0 0 0 0 0
0 0 0 0 0 0 0 0 0 0 0 0 0 0 0 0 0 0 0 0 0 0 0 0 -0 0 0 0 -0 -0 -0 -0 -0 0 0 0 0 0 0 0 0 0 0
0 0 0 0 0 0 0 0 -0 -0 -0 -0 0 0 0 0 0 0 0 0 0 0 0 0 0 -0 -0 -0 -0 -0 -0 -0 0 0 0 0 0 0 0 0 0 0 0
0 -0 0 0 0 0 0 -0 -0 -0 -0 0 0 0 0 -0 -0 0 0 0 0 0 0 0 0 0 0 -0 -0 -0 -0 -0 0 -0 0 0 0 0 0 0 0 0 0
-0 -0 -0 -0 -0 -0 -0 -0 -0 -0 -0 -0 0 0 0 0 0 0 0 -0 0 0 0 0 0 0 -0 0 -0 0 0 0 -0 -0 -0 -0 -0 0 0 0 0 0 0
-0 -0 -0 -0 -0 -0 -0 -0 -0 -0 -0 0 0 0 0 0 0 0 0 0 0 -0 -0 0 0 0 0 -0 0 0 -0 -0 -0 -0 -0 -0 -0 -0 0 0 0 0 0
0 0 0 0 0 0 0 -0 -0 -0 0 0 0 0 0 0 0 0 0 0 0 0 0 0 -0 -0 0 0 0 0 0 -0 -0 -0 0 -0 -0 -0 0 0 0 0 0
Wind_Speed_500mb
31 25 18 15 16 18 14 8 3 2 2 2 1 1 1 2 4 7 10 10 8 10 13 13 12 11 7 8 12 16 13 11 9 7 6 5 10 14 6 7 4 6 6
22 11 15 9 7 9 9 16 10 6 4 4 5 5 5 5 7 9 10 12 12 12 15 17 16 14 12 9 8 14 10 7 6 3 1 3 6 12 10 8 3 2 2
14 12 9 9 2 4 5 2 1 12 11 9 8 10 9 9 10 11 13 15 17 18 20 20 20 19 17 12 7 13 9 7 7 5 4 3 2 6 8 9 10 9 6
18 9 3 3 2 6 8 7 6 5 10 17 15 13 14 12 12 14 15 17 20 20 22 20 23 23 22 17 12 13 12 10 10 7 7 6 7 6 6 8 9 8 2
9 6 6 1 5 8 15 13 14 11 14 11 17 18 16 16 14 12 16 17 18 20 21 23 22 24 21 20 19 17 17 15 15 13 12 12 9 7 14 12 12 11 12
13 11 8 8 10 9 12 20 18 16 15 17 15 19 23 21 21 22 18 20 23 21 24 24 24 25 25 25 26 25 22 22 22 22 19 18 15 17 22 23 21 15 15
17 17 14 11 11 11 12 15 22 25 25 24 21 22 23 30 31 28 25 26 25 25 27 27 27 27 28 31 32 34 30 27 28 29 27 24 21 22 25 28 23 19 19
25 24 23 20 18 18 15 16 18 25 31 31 31 29 30 32 30 37 36 34 31 28 31 32 33 36 37 39 39 38 35 32 34 34 33 31 27 25 29 32 31 27 24
26 27 26 24 21 20 21 21 20 23 28 34 37 38 37 35 36 37 37 39 39 38 34 33 36 38 40 42 44 44 41 37 40 39 39 37 32 33 33 34 33 33 34
20 22 24 23 22 20 19 21 23 24 25 30 35 37 40 40 40 38 37 32 38 42 43 44 43 40 42 46 49 47 44 41 46 43 43 42 38 36 35 36 34 34 34
22 22 24 23 22 21 20 20 21 24 27 29 36 39 42 44 41 38 40 40 36 38 43 47 49 50 52 52 53 51 46 47 49 47 47 45 44 39 38 37 36 34 34
29 33 34 31 28 24 21 19 21 22 24 30 32 37 41 40 40 41 42 45 45 44 45 45 51 53 54 58 59 58 56 50 54 52 51 49 49 44 40 39 40 40 37
36 34 35 36 37 32 27 23 21 22 22 23 27 29 30 38 40 41 46 45 47 48 44 40 47 51 56 59 62 62 62 58 58 58 57 54 55 52 47 44 44 45 45
26 31 35 38 38 38 36 31 26 23 22 24 25 25 28 31 35 36 39 41 40 47 46 47 40 45 56 59 62 66 68 66 68 65 63 59 61 61 57 52 51 50 51
26 28 31 33 36 40 40 39 34 29 26 25 26 28 30 31 32 34 37 44 47 43 39 45 54 56 49 58 63 67 70 74 73 76 76 67 65 68 67 63 57 56 59
28 30 32 34 35 35 38 40 42 40 36 31 29 29 30 32 35 37 38 41 43 47 54 46 39 43 56 53 66 72 74 76 79 81 84 84 72 71 74 74 69 65 63
30 31 32 35 36 36 37 38 39 42 42 41 39 36 34 34 34 35 38 41 44 48 53 53 55 53 44 45 49 70 79 84 85 85 88 91 89 81 81 80 76 73 69
31 33 33 34 35 37 38 38 39 40 41 43 44 44 43 41 39 38 38 40 41 44 50 57 65 67 62 57 46 47 46 82 96 96 88 96 97 93 89 85 83 79 75
29 31 32 34 38 40 39 39 40 39 41 43 44 47 48 47 45 44 44 44 44 43 47 50 50 59 67 68 71 67 50 70 82 93 96 99 101 104 101 94 85 90 82
23 26 29 33 35 37 38 39 42 44 45 45 46 47 48 49 50 50 48 47 48 48 48 47 50 52 54 65 76 79 73 71 51 90 97 97 106 96 96 102 95 96 86
17 20 25 29 34 35 37 39 41 45 45 46 49 51 52 52 52 53 54 53 53 52 54 58 60 58 55 60 67 81 87 79 72 49 75 95 101 103 96 95 95 89 96
14 19 22 27 30 34 37 40 42 41 43 45 46 47 49 51 53 54 55 56 57 57 57 57 59 63 62 62 57 56 45 78 63 45 40 52 67 99 101 105 105 108 103
10 15 20 24 28 31 34 33 33 32 36 37 44 48 53 54 55 55 55 56 57 58 61 63 63 63 61 61 56 26 25 21 75 72 74 84 71 64 97 113 115 108 113
4 10 16 19 23 28 32 36 41 43 45 46 45 45 44 47 50 52 55 57 57 57 59 63 62 62 61 60 60 43 31 40 37 56 79 85 77 80 82 91 116 112 120
3 8 12 17 22 26 30 34 36 38 40 40 41 43 44 45 48 51 54 56 58 60 60 60 60 62 61 57 58 62 60 53 32 50 71 73 75 73 89 85 80 98 110
2 6 10 16 20 25 29 32 35 38 40 42 44 45 46 48 49 51 52 55 58 59 60 60 62 62 61 59 58 56 56 52 55 53 68 71 78 89 81 94 102 95 103
Wind_Direction_500mb
26 22 44 30 32 13 3 3 7 195 178 187 201 313 265 225 214 214 226 234 254 237 237 234 250 250 277 321 342 349 352 355 8 17 29 47 83 87 127 85 58 76 97
20 36 56 88 77 47 34 350 330 331 310 280 272 280 287 257 231 230 239 243 240 232 256 246 259 256 263 294 330 343 339 337 340 344 31 99 115 141 145 154 196 333 304
31 20 43 88 68 155 162 147 200 305 303 306 290 281 270 270 264 253 249 252 254 251 256 253 260 254 253 254 309 336 318 298 296 291 248 225 245 215 233 254 270 280 276
41 35 348 11 281 235 199 206 201 186 297 292 294 282 284 275 256 258 257 260 258 257 258 262 261 253 256 243 285 320 302 272 276 270 244 254 275 261 247 267 282 275 295
31 7 353 316 310 272 247 229 225 234 234 228 282 283 290 296 301 294 277 269 274 264 261 265 265 265 257 254 279 300 295 262 261 260 257 261 263 251 273 296 280 271 260
12 23 5 338 323 300 272 252 246 258 255 256 252 273 274 269 277 288 285 282 273 272 264 267 271 266 261 268 280 285 290 257 253 259 264 263 251 234 265 288 281 263 274
340 340 338 335 328 314 294 265 258 258 261 265 266 258 259 277 271 266 270 280 276 273 274 261 269 270 265 273 277 279 282 255 251 257 261 266 264 254 258 270 279 268 279
320 317 317 314 304 298 294 274 264 260 257 255 258 263 265 260 267 275 266 264 262 263 268 268 261 264 270 273 275 276 279 255 248 252 257 262 266 260 252 268 279 274 281
319 314 306 301 297 291 285 272 266 262 256 257 253 255 260 266 266 260 267 269 268 263 259 263 264 262 265 268 268 271 276 261 247 250 255 260 264 264 254 261 275 277 281
327 320 313 311 300 293 282 277 271 268 266 254 254 254 257 260 263 268 267 271 278 274 270 267 264 261 259 262 264 267 273 261 246 247 251 256 260 264 264 264 278 281 281
10 5 354 337 323 307 291 281 272 271 265 263 254 252 254 258 261 263 265 267 263 274 274 272 270 269 267 260 259 262 265 257 248 248 251 255 257 261 264 266 278 282 285
16 17 13 6 357 342 324 301 284 273 270 264 263 261 254 267 259 259 260 263 263 266 266 274 273 271 270 268 265 262 258 255 250 251 252 254 255 256 259 264 275 282 285
22 19 18 18 13 5 353 338 318 296 288 282 275 271 268 265 266 263 259 263 263 265 264 274 278 273 273 272 270 266 261 254 252 252 252 252 253 253 254 261 269 278 285
26 23 21 21 19 20 16 6 352 336 320 304 300 297 285 277 273 269 273 274 273 273 269 265 270 278 273 273 272 270 265 259 257 256 257 255 252 252 252 255 260 269 277
30 31 28 28 24 22 22 24 20 8 353 345 329 318 312 304 294 288 280 276 277 279 288 273 271 271 278 275 271 271 269 263 257 263 263 260 256 252 252 254 258 263 269
32 30 29 30 31 31 29 25 25 25 20 8 358 348 333 324 315 306 298 289 284 285 280 288 290 282 274 278 285 275 270 270 263 257 262 263 258 255 253 254 256 258 263
42 37 33 33 32 33 35 35 33 28 24 22 20 13 2 349 337 322 312 303 299 293 291 292 287 286 291 272 269 279 281 276 267 264 256 261 260 257 254 255 256 258 261
45 45 41 38 37 37 37 36 35 34 31 27 23 21 18 12 0 349 336 322 315 306 301 296 291 289 291 289 284 272 276 272 272 272 265 259 260 254 256 256 258 257 259
44 44 44 42 41 40 41 41 39 34 31 29 27 25 22 19 14 5 358 349 340 327 315 309 305 302 303 296 287 287 293 269 270 275 271 265 260 258 255 256 257 255 257
45 41 40 41 41 41 40 39 39 35 33 29 27 24 21 19 18 16 10 2 356 348 341 334 323 313 312 304 297 295 287 288 294 266 268 276 262 258 255 255 256 260 253
45 42 40 37 35 31 32 33 32 30 31 30 25 22 20 19 16 14 12 11 8 3 1 355 347 340 332 325 314 290 283 286 280 297 277 268 261 266 262 255 255 252 259
37 37 35 33 31 29 28 27 24 21 24 24 24 22 21 20 18 16 14 13 11 9 8 2 357 353 349 351 347 338 325 296 291 287 290 283 280 274 266 270 261 255 253
31 31 31 27 24 23 23 21 19 17 17 19 18 16 14 13 14 16 16 14 11 9 9 8 5 0 355 354 4 0 344 324 315 294 284 292 292 295 278 277 263 264 259
9 22 25 22 20 18 17 13 12 12 11 12 10 10 11 10 11 11 10 10 10 10 7 6 6 4 360 356 352 347 324 305 304 311 306 305 295 286 291 281 270 269 261
320 1 7 9 11 10 10 9 9 7 7 4 360 360 2 5 5 5 5 5 4 4 3 3 2 2 2 357 352 346 343 338 329 299 308 300 290 289 281 286 290 282 274
285 340 351 356 357 360 360 360 360 360 358 356 354 354 355 356 358 359 359 359 358 357 357 357 357 357 356 355 353 349 345 334 326 321 305 300 299 293 295 286 280 285 282
Wind_Speed_850mb
31 25 18 15 16 18 14 8 3 2 2 2 1 1 1 2 4 7 10 10 8 10 13 13 12 11 7 8 12 16 13 11 9 7 6 5 10 14 6 7 4 6 6
22 11 15 9 7 9 9 16 10 6 4 4 5 5 5 5 7 9 10 12 12 12 15 17 16 14 12 9 8 14 10 7 6 3 1 3 6 12 10 8 3 2 2
14 12 9 9 2 4 5 2 1 12 11 9 8 10 9 9 10 11 13 15 17 18 20 20 20 19 17 12 7 13 9 7 7 5 4 3 2 6 8 9 10 9 6
18 9 3 3 2 6 8 7 6 5 10 17 15 13 14 12 12 14 15 17 20 20 22 20 23 23 22 17 12 13 12 10 10 7 7 6 7 6 6 8 9 8 2
9 6 6 1 5 8 15 13 14 11 14 11 17 18 16 16 14 12 16 17 18 20 21 23 22 24 21 20 19 17 17 15 15 13 12 12 9 7 14 12 12 11 12
13 11 8 8 10 9 12 20 18 16 15 17 15 19 23 21 21 22 18 20 23 21 24 24 24 25 25 25 26 25 22 22 22 22 19 18 15 17 22 23 21 15 15
17 17 14 11 11 11 12 15 22 25 25 24 21 22 23 30 31 28 25 26 25 25 27 27 27 27 28 31 32 34 30 27 28 29 27 24 21 22 25 28 23 19 19
25 24 23 20 18 18 15 16 18 25 31 31 31 29 30 32 30 37 36 34 31 28 31 32 33 36 37 39 39 38 35 32 34 34 33 31 27 25 29 32 31 27 24
26 27 26 24 21 20 21 21 20 23 28 34 37 38 37 35 36 37 37 39 39 38 34 33 36 38 40 42 44 44 41 37 40 39 39 37 32 33 33 34 33 33 34
20 22 24 23 22 20 19 21 23 24 25 30 35 37 40 40 40 38 37 32 38 42 43 44 43 40 42 46 49 47 44 41 46 43 43 42 38 36 35 36 34 34 34
22 22 24 23 22 21 20 20 21 24 27 29 36 39 42 44 41 38 40 40 36 38 43 47 49 50 52 52 53 51 46 47 49 47 47 45 44 39 38 37 36 34 34
29 33 34 31 28 24 21 19 21 22 24 30 32 37 41 40 40 41 42 45 45 44 45 45 51 53 54 58 59 58 56 50 54 52 51 49 49 44 40 39 40 40 37
36 34 35 36 37 32 27 23 21 22 22 23 27 29 30 38 40 41 46 45 47 48 44 40 47 51 56 59 62 62 62 58 58 58 57 54 55 52 47 44 44 45 45
26 31 35 38 38 38 36 31 26 23 22 24 25 25 28 31 35 36 39 41 40 47 46 47 40 45 56 59 62 66 68 66 68 65 63 59 61 61 57 52 51 50 51
26 28 31 33 36 40 40 39 34 29 26 25 26 28 30 31 32 34 37 44 47 43 39 45 54 56 49 58 63 67 70 74 73 76 76 67 65 68 67 63 57 56 59
28 30 32 34 35 35 38 40 42 40 36 31 29 29 30 32 35 37 38 41 43 47 54 46 39 43 56 53 66 72 74 76 79 81 84 84 72 71 74 74 69 65 63
30 31 32 35 36 36 37 38 39 42 42 41 39 36 34 34 34 35 38 41 44 48 53 53 55 53 44 45 49 70 79 84 85 85 88 91 89 81 81 80 76 73 69
31 33 33 34 35 37 38 38 39 40 41 43 44 44 43 41 39 38 38 40 41 44 50 57 65 67 62 57 46 47 46 82 96 96 88 96 97 93 89 85 83 79 75
29 31 32 34 38 40 39 39 40 39 41 43 44 47 48 47 45 44 44 44 44 43 47 50 50 59 67 68 71 67 50 70 82 93 96 99 101 104 101 94 85 90 82
23 26 29 33 35 37 38 39 42 44 45 45 46 47 48 49 50 50 48 47 48 48 48 47 50 52 54 65 76 79 73 71 51 90 97 97 106 96 96 102 95 96 86
17 20 25 29 34 35 37 39 41 45 45 46 49 51 52 52 52 53 54 53 53 52 54 58 60 58 55 60 67 81 87 79 72 49 75 95 101 103 96 95 95 89 96
14 19 22 27 30 34 37 40 42 41 43 45 46 47 49 51 53 54 55 56 57 57 57 57 59 63 62 62 57 56 45 78 63 45 40 52 67 99 101 105 105 108 103
10 15 20 24 28 31 34 33 33 32 36 37 44 48 53 54 55 55 55 56 57 58 61 63 63 63 61 61 56 26 25 21 75 72 74 84 71 64 97 113 115 108 113
4 10 16 19 23 28 32 36 41 43 45 46 45 45 44 47 50 52 55 57 57 57 59 63 62 62 61 60 60 43 31 40 37 56 79 85 77 80 82 91 116 112 120
3 8 12 17 22 26 30 34 36 38 40 40 41 43 44 45 48 51 54 56 58 60 60 60 60 62 61 57 58 62 60 53 32 50 71 73 75 73 89 85 80 98 110
2 6 10 16 20 25 29 32 35 38 40 42 44 45 46 48 49 51 52 55 58 59 60 60 62 62 61 59 58 56 56 52 55 53 68 71 78 89 81 94 102 95 103
Wind_Direction_850mb
26 22 44 30 32 13 3 3 7 195 178 187 201 313 265 225 214 214 226 234 254 237 237 234 250 250 277 321 342 349 352 355 8 17 29 47 83 87 127 85 58 76 97
20 36 56 88 77 47 34 350 330 331 310 280 272 280 287 257 231 230 239 243 240 232 256 246 259 256 263 294 330 343 339 337 340 344 31 99 115 141 145 154 196 333 304
31 20 43 88 68 155 162 147 200 305 303 306 290 281 270 270 264 253 249 252 254 251 256 253 260 254 253 254 309 336 318 298 296 291 248 225 245 215 233 254 270 280 276
41 35 348 11 281 235 199 206 201 186 297 292 294 282 284 275 256 258 257 260 258 257 258 262 261 253 256 243 285 320 302 272 276 270 244 254 275 261 247 267 282 275 295
31 7 353 316 310 272 247 229 225 234 234 228 282 283 290 296 301 294 277 269 274 264 261 265 265 265 257 254 279 300 295 262 261 260 257 261 263 251 273 296 280 271 260
12 23 5 338 323 300 272 252 246 258 255 256 252 273 274 269 277 288 285 282 273 272 264 267 271 266 261 268 280 285 290 257 253 259 264 263 251 234 265 288 281 263 274
340 340 338 335 328 314 294 265 258 258 261 265 266 258 259 277 271 266 270 280 276 273 274 261 269 270 265 273 277 279 282 255 251 257 261 266 264 254 258 270 279 268 279
320 317 317 314 304 298 294 274 264 260 257 255 258 263 265 260 267 275 266 264 262 263 268 268 261 264 270 273 275 276 279 255 248 252 257 262 266 260 252 268 279 274 281
319 314 306 301 297 291 285 272 266 262 256 257 253 255 260 266 266 260 267 269 268 263 259 263 264 262 265 268 268 271 276 261 247 250 255 260 264 264 254 261 275 277 281
327 320 313 311 300 293 282 277 271 268 266 254 254 254 257 260 263 268 267 271 278 274 270 267 264 261 259 262 264 267 273 261 246 247 251 256 260 264 264 264 278 281 281
10 5 354 337 323 307 291 281 272 271 265 263 254 252 254 258 261 263 265 267 263 274 274 272 270 269 267 260 259 262 265 257 248 248 251 255 257 261 264 266 278 282 285
16 17 13 6 357 342 324 301 284 273 270 264 263 261 254 267 259 259 260 263 263 266 266 274 273 271 270 268 265 262 258 255 250 251 252 254 255 256 259 264 275 282 285
22 19 18 18 13 5 353 338 318 296 288 282 275 271 268 265 266 263 259 263 263 265 264 274 278 273 273 272 270 266 261 254 252 252 252 252 253 253 254 261 269 278 285
26 23 21 21 19 20 16 6 352 336 320 304 300 297 285 277 273 269 273 274 273 273 269 265 270 278 273 273 272 270 265 259 257 256 257 255 252 252 252 255 260 269 277
30 31 28 28 24 22 22 24 20 8 353 345 329 318 312 304 294 288 280 276 277 279 288 273 271 271 278 275 271 271 269 263 257 263 263 260 256 252 252 254 258 263 269
32 30 29 30 31 31 29 25 25 25 20 8 358 348 333 324 315 306 298 289 284 285 280 288 290 282 274 278 285 275 270 270 263 257 262 263 258 255 253 254 256 258 263
42 37 33 33 32 33 35 35 33 28 24 22 20 13 2 349 337 322 312 303 299 293 291 292 287 286 291 272 269 279 281 276 267 264 256 261 260 257 254 255 256 258 261
45 45 41 38 37 37 37 36 35 34 31 27 23 21 18 12 0 349 336 322 315 306 301 296 291 289 291 289 284 272 276 272 272 272 265 259 260 254 256 256 258 257 259
44 44 44 42 41 40 41 41 39 34 31 29 27 25 22 19 14 5 358 349 340 327 315 309 305 302 303 296 287 287 293 269 270 275 271 265 260 258 255 256 257 255 257
45 41 40 41 41 41 40 39 39 35 33 29 27 24 21 19 18 16 10 2 356 348 341 334 323 313 312 304 297 295 287 288 294 266 268 276 262 258 255 255 256 260 253
45 42 40 37 35 31 32 33 32 30 31 30 25 22 20 19 16 14 12 11 8 3 1 355 347 340 332 325 314 290 283 286 280 297 277 268 261 266 262 255 255 252 259
37 37 35 33 31 29 28 27 24 21 24 24 24 22 21 20 18 16 14 13 11 9 8 2 357 353 349 351 347 338 325 296 291 287 290 283 280 274 266 270 261 255 253
31 31 31 27 24 23 23 21 19 17 17 19 18 16 14 13 14 16 16 14 11 9 9 8 5 0 355 354 4 0 344 324 315 294 284 292 292 295 278 277 263 264 259
9 22 25 22 20 18 17 13 12 12 11 12 10 10 11 10 11 11 10 10 10 10 7 6 6 4 360 356 352 347 324 305 304 311 306 305 295 286 291 281 270 269 261
320 1 7 9 11 10 10 9 9 7 7 4 360 360 2 5 5 5 5 5 4 4 3 3 2 2 2 357 352 346 343 338 329 299 308 300 290 289 281 286 290 282 274
285 340 351 356 357 360 360 360 360 360 358 356 354 354 355 356 358 359 359 359 358 357 357 357 357 357 356 355 353 349 345 334 326 321 305 300 299 293 295 286 280 285 282